Location: Lynch Observatory
(39.9540°N, 75.1861°W)
Time: 08:58:24
(UTC-04:00)

OTV 5 (USA 277) - Visible Passes

Search period start: 20 April 2018 00:00
Search period end: 30 April 2018 00:00
Orbit: 350 x 361 km, 54.5° (Epoch: 18 April)

Date Brightness Start Highest point End Pass type
(mag) Time Alt. Az. Time Alt. Az. Time Alt. Az.
20 Apr ? 21:04:19 10° W 21:06:39 20° NNW 21:08:58 10° NNE visible
22 Apr ? 20:24:30 10° WNW 20:26:42 18° NNW 20:28:54 10° NNE visible
27 Apr ? 22:46:28 10° N 22:46:31 10° N 22:46:31 10° N visible
29 Apr ? 22:06:19 10° N 22:07:44 13° NNE 22:07:44 13° NNE visible
